New York, New York
Traffic Map
Current Weather Conditions
New York, New York
Clear
Clear

Feels Like: -2°
Wind Chill: -2° Ceiling: Unl
Heat Index: Visibility: 10mi
Dew Point: -15° Wind: 8mph
Humidity: 28% Direction: 250° (WSW)
Pressure: 30.43in Gusts: 0mph
Raw Report DataKJRB 272115Z AUTO 25007KT 240V350 10SM CLR 02/M15 A3043 RMK AO1
Traffic Incident Summary
Active as of:
Severity:
Category:
InformationThere was an issue retrieving the traffic information for this location. Please try a different location or try again shortly.
Advertisements
Track Severe Weather on mobile